GFSCGP_con_sbcape_000.txt.gz
CAPE
0 0 0 0 0 0 0 0 7 39 35 8 7 100 45 11 0 78 137 188 188 87 52 78 79 173 168 330 621 897 734 779 710 624 841 937 1101 1310 846 777 255 178 142 199
0 0 0 0 0 0 0 0 0 4 12 17 6 19 13 6 49 27 4 28 157 186 40 80 161 284 251 336 653 878 936 676 804 1127 1373 973 1054 950 804 792 406 218 168 324
0 0 0 0 0 0 0 0 0 11 7 18 10 17 33 7 21 18 56 0 43 222 88 121 169 307 207 365 613 843 826 440 654 1278 1375 1063 874 660 1138 809 391 208 161 295
0 0 0 0 0 0 0 0 7 13 4 5 1 40 80 1 30 10 0 21 61 241 202 163 213 336 294 128 384 751 738 630 908 1069 1255 1297 998 746 949 913 671 155 208 237
0 0 0 0 0 0 0 6 19 3 5 1 0 0 0 16 32 38 0 0 111 270 225 158 238 295 103 116 398 687 883 734 814 803 1222 1218 1228 934 928 632 469 452 86 307
0 0 0 0 0 0 0 5 3 1 2 7 0 0 0 8 7 0 0 0 160 229 245 219 292 277 51 16 176 712 948 611 884 936 634 1263 880 894 840 318 517 579 493 252
0 0 0 0 0 5 0 12 6 14 0 10 0 0 13 10 0 0 0 41 306 318 228 237 231 120 25 0 144 343 712 500 473 662 619 1006 977 629 790 589 220 386 343 357
0 0 0 0 0 0 2 14 0 49 1 1 45 37 0 0 0 0 0 37 380 284 254 222 190 87 2 0 33 124 491 383 340 374 523 911 882 705 669 249 177 322 421 385
0 0 0 0 0 0 0 0 0 0 2 3 1 12 19 3 0 0 0 228 517 341 268 238 188 70 32 31 87 259 465 451 287 244 674 502 1021 741 990 926 532 93 402 437
0 5 0 0 1 0 19 0 0 0 0 70 0 15 33 0 0 22 171 376 667 358 190 183 109 114 54 50 145 346 422 265 155 238 723 484 759 935 961 1194 932 202 361 525
0 193 26 38 5 0 0 0 0 3 0 19 41 19 74 61 200 530 329 591 573 259 65 130 56 128 2 0 0 259 331 104 184 126 277 379 759 950 705 623 531 76 123 308
0 35 199 14 0 0 3 0 7 12 78 0 8 92 102 110 39 225 382 457 220 113 69 32 27 103 0 0 1 117 395 7 16 49 163 187 1019 1082 891 754 758 192 295 410
7 57 324 281 228 60 26 0 8 149 298 190 2 58 90 12 19 40 532 261 128 117 57 36 12 39 0 0 0 0 130 0 0 0 14 101 1128 989 994 702 527 299 120 262
106 164 131 323 167 93 95 9 0 0 96 0 21 56 161 7 0 8 532 323 134 111 121 46 47 34 0 0 0 0 35 0 0 0 18 113 981 993 1075 773 751 793 481 128
382 64 229 71 130 65 1 0 0 0 4 1 58 23 39 107 65 72 553 353 118 78 77 136 138 42 0 0 0 0 0 0 0 0 15 146 565 1141 942 744 724 660 534 527
655 154 247 26 49 128 23 0 0 0 0 0 5 60 98 128 65 92 463 371 135 126 79 107 191 114 0 0 0 0 6 0 0 0 0 8 7 253 678 990 406 296 276 518
650 147 197 239 29 87 140 31 0 0 0 0 26 111 75 36 36 133 580 446 437 281 192 158 240 177 0 0 2 19 43 0 0 0 0 0 2 22 644 522 416 314 689 844
299 307 250 274 269 149 17 37 0 4 1 0 4 67 61 57 50 0 138 505 424 459 352 235 326 392 66 0 0 22 30 0 0 0 0 0 0 0 140 279 571 662 627 716
120 239 214 392 239 34 0 1 23 62 71 16 0 0 0 1 10 77 51 51 548 645 621 431 461 631 168 5 0 4 13 0 0 0 0 0 0 1 37 316 658 912 1055 761
100 326 482 334 303 258 90 0 0 10 18 72 53 76 72 8 1 7 139 52 569 547 700 632 614 590 272 167 44 58 32 0 0 0 0 0 0 8 138 710 936 1008 1210 942
111 218 311 248 676 166 56 21 47 0 0 144 111 201 271 174 111 862 680 364 805 654 735 892 671 594 410 261 137 100 30 47 0 0 0 0 0 44 417 1090 886 1060 930 546
206 175 396 447 345 170 16 42 133 505 1379 650 277 249 276 243 347 393 387 301 718 609 584 848 750 783 662 336 200 150 129 137 1 0 0 0 89 0 346 890 706 642 608 1057
1 114 305 243 294 596 464 662 1112 781 523 44 367 199 215 133 116 83 406 682 690 656 663 648 833 1118 909 465 246 198 336 204 8 0 3 60 5 3 334 599 563 362 530 356
0 0 0 1 210 402 187 260 477 289 291 256 248 279 174 180 157 126 106 614 523 554 707 753 864 1117 1082 682 450 349 365 192 22 80 195 133 1 16 200 280 386 93 64 50
0 0 0 0 33 259 210 337 276 259 230 200 128 43 262 331 339 312 295 620 391 539 670 781 795 1229 1260 1037 741 535 453 127 102 246 189 190 18 1 221 190 275 113 99 0
0 0 0 36 0 0 281 99 10 520 226 313 236 297 384 297 452 413 530 596 596 634 780 1067 1194 1407 1253 1265 1053 709 483 234 376 355 207 147 43 0 57 51 156 0 5 0

GFSCGP_con_sbcape_003.txt.gz
CAPE
0 0 0 0 0 0 0 0 0 0 0 0 0 0 0 0 0 0 0 0 0 0 0 0 0 0 0 0 38 74 48 19 15 0 67 0 6 14 145 81 29 0 0 0
0 0 0 0 0 0 0 0 0 0 0 0 0 0 8 2 0 4 0 0 0 0 0 0 0 0 0 0 7 154 98 41 0 2 199 0 107 30 40 18 34 25 32 53
0 0 0 0 0 0 0 0 0 0 0 0 0 0 0 0 0 0 0 0 0 0 0 0 5 0 0 0 0 143 73 2 0 33 128 3 3 22 33 28 6 2 21 62
0 0 0 0 0 0 0 0 0 0 0 0 0 0 0 0 0 0 0 0 0 0 0 0 2 2 0 0 14 20 21 0 0 0 81 169 59 26 26 41 28 11 26 38
0 0 0 0 0 0 0 0 0 0 0 0 0 0 0 0 0 0 0 0 0 0 0 0 7 8 0 0 0 6 0 0 18 18 37 176 101 69 24 0 7 21 36 98
0 0 0 0 0 0 0 0 0 0 0 0 0 0 0 0 0 0 0 0 0 0 0 0 2 1 0 0 0 0 6 0 59 190 4 24 39 104 21 0 0 10 54 26
0 0 0 0 0 0 0 0 0 0 0 0 0 0 0 0 0 0 0 0 0 0 0 0 7 0 0 0 0 0 5 0 0 10 0 0 0 48 2 0 0 3 17 10
0 0 0 0 0 0 0 0 0 0 0 0 0 0 0 0 0 0 0 0 0 0 0 0 0 0 0 0 0 0 0 0 0 0 0 0 0 10 0 0 0 5 4 13
0 0 0 0 0 0 0 0 0 0 0 0 0 0 0 0 0 0 0 0 0 0 0 0 0 0 0 0 0 0 0 0 0 0 0 7 35 55 40 18 0 1 9 32
0 0 0 0 0 0 0 0 0 0 0 0 0 0 0 0 0 0 0 0 0 0 0 0 0 0 0 0 0 0 0 0 0 0 0 31 137 140 58 53 66 18 12 1
0 0 0 0 0 0 0 2 0 0 0 0 0 0 0 0 0 0 3 0 0 0 0 0 0 0 0 0 0 0 0 0 0 0 0 16 327 104 141 106 27 24 0 15
0 0 0 0 0 0 0 0 0 0 0 0 0 0 0 5 6 20 76 13 0 0 0 0 0 0 0 0 0 0 0 0 0 0 0 1 88 112 182 243 68 64 54 15
0 0 0 0 0 0 0 0 0 0 0 0 0 0 0 0 88 123 95 19 0 0 0 0 0 0 0 0 0 0 0 0 0 0 0 0 81 127 101 162 70 60 25 36
0 0 0 0 0 0 0 0 0 0 0 0 0 0 0 0 18 65 16 1 0 0 0 0 0 0 0 0 0 0 0 0 0 0 0 4 4 49 83 60 92 36 22 29
0 0 0 0 0 0 0 0 0 0 0 0 0 0 0 0 0 2 2 0 0 0 0 0 0 0 0 0 0 0 0 0 0 0 0 0 29 4 100 67 132 10 26 29
0 0 0 0 0 0 0 0 0 0 0 0 0 0 0 0 0 1 0 0 0 0 0 0 0 0 0 0 0 0 0 0 0 0 0 0 0 272 4 1 59 0 92 24
0 0 0 0 0 25 3 0 0 0 0 0 0 0 6 0 0 3 0 0 0 0 0 0 0 0 0 0 0 0 0 0 0 0 0 0 0 58 27 0 0 0 0 0
0 0 0 0 1 55 0 0 0 0 0 0 0 0 0 2 4 39 19 0 0 0 0 0 0 0 0 0 0 0 0 0 0 0 0 0 0 72 41 1 0 1 0 0
0 0 1 0 0 54 3 3 0 0 0 0 0 0 0 0 4 53 54 14 29 0 0 0 0 0 0 0 0 0 0 0 0 0 0 0 0 0 39 48 0 7 0 0
0 0 0 0 6 0 2 0 0 0 0 0 0 0 0 0 0 0 0 71 100 6 0 0 7 0 0 0 0 0 0 0 0 0 0 0 0 0 0 150 23 107 37 36
19 45 118 4 39 44 9 30 1 8 0 3 0 0 0 0 0 0 0 16 110 109 7 49 44 0 0 0 0 0 0 0 0 0 0 0 0 0 4 322 345 177 356 89
0 0 37 10 124 160 160 44 5 0 63 44 7 20 0 69 30 89 96 52 66 219 131 120 66 0 0 0 0 0 0 0 0 0 0 0 0 0 432 434 381 226 269 149
6 12 4 0 202 18 9 18 354 130 189 52 226 65 5 31 1 16 89 138 114 167 190 141 85 4 0 0 0 0 0 0 0 0 0 0 0 21 410 291 268 133 74 220
12 0 0 0 0 0 0 0 0 0 215 259 301 73 0 0 0 0 203 191 150 157 242 175 256 105 19 0 0 0 0 0 0 0 0 0 0 130 296 234 128 35 8 13
11 4 2 0 0 0 0 0 0 0 0 0 34 57 0 0 0 0 117 106 131 230 170 269 492 279 91 6 0 0 2 0 0 0 0 0 0 65 50 111 55 1 0 0
5 7 0 4 0 0 0 0 0 0 0 0 0 0 75 16 0 0 136 80 74 100 323 290 519 506 326 115 49 0 3 0 0 0 0 0 0 0 16 9 4 0 0 0

GFSCGP_con_sbcape_006.txt.gz
CAPE
0 0 0 0 0 0 0 0 0 0 0 0 0 0 0 0 0 0 0 0 0 0 0 0 0 0 0 0 0 0 0 0 0 0 0 0 0 0 0 11 6 0 0 0
0 0 0 0 0 0 0 0 0 0 0 0 0 0 0 0 0 0 0 0 0 0 0 0 0 0 0 0 0 0 0 0 0 0 0 0 0 0 0 5 5 3 1 11
0 0 0 0 0 0 0 0 0 0 0 0 0 0 0 0 0 0 0 0 0 0 0 0 0 0 0 0 0 2 0 0 0 0 0 0 0 0 0 4 6 0 0 16
0 0 0 0 0 0 0 0 0 0 0 0 0 0 0 0 0 0 0 0 0 0 0 0 0 0 0 0 0 0 0 0 0 0 0 0 1 0 0 0 0 0 1 5
0 0 0 0 0 0 0 0 0 0 0 0 0 0 0 0 0 0 0 0 0 0 0 0 0 0 0 0 0 0 0 0 0 0 0 0 0 0 0 0 0 0 13 31
0 0 0 0 0 0 0 0 0 0 0 0 0 0 0 0 0 0 0 0 0 0 0 0 0 0 0 0 0 0 0 0 0 0 0 0 0 0 0 0 0 0 1 8
0 0 0 0 0 0 0 0 0 0 0 0 0 0 0 0 0 0 0 0 0 0 0 0 0 0 0 0 0 0 0 0 0 0 0 0 0 0 0 0 0 0 0 0
0 0 0 0 0 0 0 0 0 0 0 0 0 0 0 0 0 0 0 0 0 0 0 0 0 0 0 0 0 0 0 0 0 0 0 0 0 0 0 0 0 0 0 0
0 0 0 0 0 0 0 0 0 0 0 0 0 0 0 0 0 0 0 0 0 0 0 0 0 0 0 0 0 0 0 0 0 0 0 0 0 0 0 0 0 0 0 0
0 0 0 0 0 0 0 0 0 0 0 0 0 0 0 0 0 0 0 0 0 0 0 0 0 0 0 0 0 0 0 0 0 0 0 0 3 0 0 0 0 0 0 0
0 0 0 0 0 0 0 0 0 0 0 0 0 0 0 0 0 0 0 0 0 0 0 0 0 0 0 0 0 0 0 0 0 0 0 5 22 6 5 0 0 0 0 0
0 0 0 0 0 0 0 0 0 0 0 0 0 0 0 0 0 0 0 0 0 0 0 0 0 0 0 0 0 0 0 0 0 0 0 8 11 0 4 0 0 0 0 0
0 0 0 0 0 0 0 0 0 0 0 0 0 0 0 0 0 0 0 0 0 0 0 0 0 0 0 0 0 0 0 0 0 0 0 10 1 0 37 1 0 0 0 0
0 0 0 0 0 0 0 0 0 0 0 0 0 0 0 0 0 0 0 0 0 0 0 0 0 0 0 0 0 0 0 0 0 0 0 0 0 0 0 0 0 0 0 0
0 0 0 0 0 0 0 0 0 0 0 0 0 0 0 0 0 0 0 0 0 0 0 0 0 0 0 0 0 0 0 0 0 0 0 0 0 0 2 0 0 0 0 1
0 0 0 0 0 0 0 0 0 0 0 0 0 0 0 0 0 0 0 0 0 0 0 0 0 0 0 0 0 0 0 0 0 0 0 0 0 0 0 0 0 0 0 0
0 0 0 0 0 0 0 0 0 0 0 0 0 0 0 0 0 0 0 0 0 0 0 0 0 0 0 0 0 0 0 0 0 0 0 0 0 3 0 0 0 0 0 0
0 0 0 0 0 0 0 0 0 0 0 0 0 0 0 0 0 0 0 0 0 0 0 0 0 0 0 0 0 0 0 0 0 0 0 0 0 0 0 0 0 0 0 0
0 0 0 0 0 0 0 0 0 0 0 0 0 0 0 0 0 0 0 0 0 0 0 0 0 0 0 0 0 0 0 0 0 0 0 0 0 0 0 0 0 0 0 0
0 0 0 0 0 0 0 0 0 0 0 0 0 0 0 0 0 0 0 0 0 0 0 0 0 0 0 0 0 0 0 0 0 0 0 0 0 0 0 0 0 0 0 0
1 0 0 0 0 0 0 0 0 0 0 0 0 0 0 0 0 1 0 0 0 0 0 0 0 0 0 0 0 0 0 0 0 0 0 0 0 0 0 0 0 0 0 0
26 6 0 0 0 33 0 0 5 0 0 0 0 0 0 0 0 0 0 0 0 0 0 0 0 0 0 0 0 0 0 0 0 0 0 0 0 0 0 0 0 0 0 0
16 41 25 6 0 0 0 0 0 0 0 0 0 0 0 0 0 0 0 0 0 0 0 0 0 0 0 0 0 0 0 0 0 0 0 0 0 0 0 0 0 0 0 0
12 10 2 0 0 0 0 0 0 0 0 0 0 0 0 0 0 0 0 0 0 0 0 0 0 0 0 0 0 0 0 0 0 0 0 0 0 0 39 33 0 0 0 4
18 19 7 0 0 0 0 0 0 0 0 0 0 0 0 0 0 0 0 0 0 0 0 0 0 0 0 0 0 0 0 0 0 0 0 0 0 0 41 70 25 7 0 0
34 2 10 10 0 0 0 0 0 0 0 0 0 0 0 0 0 0 0 0 0 10 0 0 0 0 0 0 0 0 0 0 0 0 0 0 0 0 24 0 0 0 0 0

GFSCGP_con_sbcape_009.txt.gz
CAPE
0 0 0 0 0 0 0 0 0 0 0 0 0 0 0 0 0 0 0 0 0 0 0 0 0 0 0 0 0 0 0 0 0 0 0 0 0 0 0 0 0 0 0 0
0 0 0 0 0 0 0 0 0 0 0 0 0 0 0 0 0 0 0 0 0 0 0 0 0 0 0 0 0 0 0 0 0 0 0 0 0 0 0 0 4 3 1 0
0 0 0 0 0 0 0 0 0 0 0 0 0 0 0 0 0 0 0 0 0 0 0 0 0 0 0 0 0 0 0 0 0 0 0 0 0 0 0 0 0 0 0 0
0 0 0 0 0 0 0 0 0 0 0 0 0 0 0 0 0 0 0 0 0 0 0 0 0 0 0 0 0 0 0 0 0 0 0 0 0 0 0 0 0 0 0 6
0 0 0 0 0 0 0 0 0 0 0 0 0 0 0 0 0 0 0 0 0 0 0 0 0 0 0 0 0 0 0 0 0 0 0 0 0 0 0 0 0 0 0 10
0 0 0 0 0 0 0 0 0 0 0 0 0 0 0 0 0 0 0 0 0 0 0 0 0 0 0 0 0 0 0 0 0 0 0 0 0 0 0 0 0 0 0 1
0 0 0 0 0 0 0 0 0 0 0 0 0 0 0 0 0 0 0 0 0 0 0 0 0 0 0 0 0 0 0 0 0 0 0 0 0 0 0 0 0 0 0 0
0 0 0 0 0 0 0 0 0 0 0 0 0 0 0 0 0 0 0 0 0 0 0 0 0 0 0 0 0 0 0 0 0 0 0 0 0 0 0 0 0 0 0 0
0 0 0 0 0 0 0 0 0 0 0 0 0 0 0 0 0 0 0 0 0 0 0 0 0 0 0 0 0 0 0 0 0 0 0 0 0 0 0 0 0 0 0 0
0 0 0 0 0 0 0 0 0 0 0 0 0 0 0 0 0 0 0 0 0 0 0 0 0 0 0 0 0 0 0 0 0 0 0 0 0 0 0 0 0 0 0 0
0 0 0 0 0 0 0 0 0 0 0 0 0 0 0 0 0 0 0 0 0 0 0 0 0 0 0 0 0 0 0 0 0 0 0 0 0 0 0 0 0 0 0 0
0 0 0 0 0 0 0 0 0 0 0 0 0 0 0 0 0 0 0 0 0 0 0 0 0 0 0 0 0 0 0 0 0 0 0 2 0 0 0 0 0 0 0 0
0 0 0 0 0 0 0 0 0 0 0 0 0 0 0 0 0 0 0 0 0 0 0 0 0 0 0 0 0 0 0 0 0 0 0 2 0 0 0 0 0 0 0 0
0 0 0 0 0 0 0 0 0 0 0 0 0 0 0 0 0 0 0 0 0 0 0 0 0 0 0 0 0 0 0 0 0 0 0 0 0 0 0 0 0 0 0 0
0 0 0 0 0 0 0 0 0 0 0 0 0 0 0 0 0 0 0 0 0 0 0 0 0 0 0 0 0 0 0 0 0 0 0 0 0 0 0 0 0 0 0 0
0 0 0 0 0 0 0 0 0 0 0 0 0 0 0 0 0 0 0 0 0 0 0 0 0 0 0 0 0 0 0 0 0 0 0 0 0 0 0 0 0 0 0 0
0 0 0 0 0 0 0 0 0 0 0 0 0 0 0 0 0 0 0 0 0 0 0 0 0 0 0 0 0 0 0 0 0 0 0 0 0 0 0 0 0 0 0 0
0 0 0 0 0 0 0 0 0 0 0 0 0 0 0 0 0 0 0 0 0 0 0 0 0 0 0 0 0 0 0 0 0 0 0 0 0 0 0 0 0 0 0 0
0 0 0 0 0 0 0 0 0 0 0 0 0 0 0 0 0 0 0 0 0 0 0 0 0 0 0 0 0 0 0 0 0 0 0 0 0 0 0 0 0 0 0 0
0 0 0 0 0 0 0 0 0 0 0 0 0 0 0 0 0 0 0 0 0 0 0 0 0 0 0 0 0 0 0 0 0 0 0 0 0 0 0 0 0 0 0 0
7 1 0 0 0 0 0 0 0 0 0 0 0 0 0 0 0 0 0 0 0 0 0 0 0 0 0 0 0 0 0 0 0 0 0 0 0 0 0 0 0 0 0 0
9 15 3 1 0 0 0 0 0 0 0 0 0 0 0 0 0 0 0 0 0 0 0 0 0 0 0 0 0 0 0 0 0 0 0 0 0 0 0 0 0 0 0 0
17 11 28 7 3 0 0 0 0 0 0 0 0 0 0 0 0 0 0 0 0 0 0 0 0 0 0 0 0 0 0 0 0 0 0 0 0 0 0 0 0 0 0 0
4 6 29 6 2 0 0 0 0 0 0 0 0 0 0 0 0 0 0 0 0 0 0 0 0 0 0 0 0 0 0 0 0 0 0 0 0 0 0 0 0 0 0 0
6 8 5 6 9 0 0 0 0 0 0 0 0 0 0 0 0 0 0 0 0 0 0 0 0 0 0 0 0 0 0 0 0 0 0 0 0 0 0 0 0 0 0 0
22 3 8 17 1 0 0 0 0 0 0 0 0 0 0 0 0 0 0 0 0 0 0 0 0 0 0 0 0 0 0 0 0 0 0 0 0 0 0 0 0 0 0 0

GFSCGP_con_sbcape_015.txt.gz
CAPE
0 0 0 0 0 0 0 0 0 0 0 0 0 0 0 0 0 0 0 0 0 0 0 0 0 0 0 0 0 15 21 66 61 25 31 123 273 373 348 414 398 391 482 354
0 0 0 0 0 0 0 0 0 0 0 0 0 0 0 0 0 0 0 0 0 0 0 0 0 0 0 0 0 8 41 49 53 72 130 206 373 455 391 406 457 469 522 567
0 0 0 0 0 0 0 0 0 0 0 0 0 0 0 0 0 0 0 0 0 0 0 0 0 0 0 0 0 2 22 40 62 103 139 227 225 345 443 383 334 284 311 358
0 0 0 0 0 0 0 0 0 0 0 0 0 0 0 0 0 0 0 0 0 0 0 0 0 0 0 0 0 0 12 57 92 149 209 389 557 576 290 303 231 224 93 193
0 0 0 0 0 0 0 0 0 0 0 0 0 0 0 0 0 0 0 0 0 0 0 0 0 0 0 0 0 0 32 102 133 131 190 458 740 249 242 191 250 272 268 221
0 0 0 0 0 0 0 0 0 0 0 0 0 0 0 0 0 0 0 0 0 0 0 0 0 0 0 0 0 4 77 152 90 116 193 542 524 243 106 202 245 251 278 392
0 0 0 0 0 0 0 0 0 0 0 0 0 0 0 0 0 0 0 0 0 0 0 0 0 0 0 0 0 16 107 53 70 69 133 279 264 133 94 115 180 265 328 475
0 0 0 0 0 0 0 0 0 0 0 0 0 0 0 0 0 0 0 0 0 0 0 0 0 0 0 0 10 21 87 52 46 122 261 154 165 7 5 65 145 159 304 443
0 0 0 0 0 0 0 0 0 0 0 0 0 0 0 0 0 0 0 0 0 0 0 0 0 0 0 0 39 76 77 45 91 53 146 117 201 0 73 139 85 162 307 355
0 0 0 0 0 0 0 0 0 0 0 0 0 0 0 0 0 0 0 0 0 0 0 0 0 0 0 0 32 56 20 18 49 0 167 148 184 2 77 102 118 190 299 333
0 0 0 0 0 0 0 0 0 0 0 0 0 0 0 0 0 11 0 0 0 0 0 0 0 0 0 0 0 0 0 0 0 0 95 210 217 93 58 84 64 115 212 242
0 0 0 0 0 0 0 0 0 0 0 0 0 0 0 0 0 0 0 0 0 0 0 0 0 0 0 0 0 0 0 0 0 19 4 129 320 248 117 73 56 94 163 182
5 0 0 0 0 0 0 0 0 0 0 0 0 0 0 0 0 0 0 0 0 0 0 0 0 0 0 0 0 0 0 1 0 0 2 441 435 345 242 38 65 83 235 276
9 0 0 0 0 0 0 0 0 0 0 0 0 0 0 0 0 0 0 0 0 0 0 0 0 0 0 0 0 0 0 0 0 0 30 497 426 300 99 59 167 113 282 355
3 1 0 0 0 0 0 0 0 0 0 0 0 0 0 0 0 0 0 0 0 0 0 0 0 0 0 0 0 0 0 0 0 0 238 371 341 178 70 165 102 267 313 328
1 2 0 0 0 0 0 0 0 0 0 0 0 0 0 0 0 0 0 0 0 0 0 0 0 0 0 0 0 0 0 0 0 19 236 113 224 53 126 198 270 327 283 368
14 6 0 0 0 0 0 0 0 0 0 0 0 0 0 0 0 0 0 0 0 0 1 0 0 0 0 0 0 0 0 0 0 15 161 131 254 55 103 179 265 406 420 488
3 4 0 0 0 0 0 0 0 0 0 0 0 0 0 0 0 0 0 0 1 0 4 0 0 0 0 0 0 0 0 0 0 1 143 153 161 29 138 217 259 229 444 499
10 14 4 0 0 0 0 0 0 0 0 0 0 0 0 0 0 0 0 0 14 71 11 3 0 0 0 0 0 0 0 0 0 0 96 108 289 65 205 306 149 129 313 255
11 6 11 0 0 0 0 0 0 0 0 0 0 0 0 0 0 0 0 0 0 7 10 1 0 0 0 0 0 0 0 0 0 0 2 21 168 346 215 320 24 23 135 131
34 27 19 9 0 0 0 0 0 0 0 0 0 0 0 0 0 0 0 0 0 0 10 0 0 0 0 0 0 0 0 0 0 0 0 1 157 449 266 265 5 2 28 5
34 27 26 2 0 0 3 0 0 0 0 0 0 0 0 0 0 0 0 0 0 0 0 0 0 0 0 0 0 0 0 0 0 0 0 0 137 189 172 245 7 1 77 21
30 26 29 18 16 2 1 3 0 0 0 0 0 0 0 0 0 0 0 0 0 0 0 0 1 0 0 0 0 0 0 0 0 0 0 0 46 50 125 202 56 0 57 20
20 10 32 9 5 1 0 0 0 0 0 0 0 0 0 0 0 0 0 0 0 0 0 0 0 0 0 0 0 0 0 0 0 0 0 0 0 66 49 80 52 0 0 0
22 13 9 14 3 0 0 0 0 0 0 0 0 0 0 0 0 0 0 0 0 0 0 0 0 0 0 0 0 0 0 0 0 0 0 0 0 16 79 102 52 7 2 0
27 25 17 12 4 4 0 0 0 0 0 0 0 0 0 0 0 0 0 0 0 0 0 0 0 0 0 0 0 0 0 0 0 0 0 0 0 0 80 95 0 0 0 0

GFSCGP_con_sbcape_021.txt.gz
CAPE
0 0 0 0 0 0 0 0 0 0 0 9 0 1 34 0 0 0 0 5 0 0 0 1 2 6 172 222 529 1129 1136 2533 2434 1859 1259 810 483 612 467 533 658 736 864 1364
0 0 0 0 0 0 0 0 0 0 0 18 12 16 9 2 3 0 0 0 0 0 0 0 0 382 300 475 728 808 963 1891 2170 1478 1326 723 718 432 453 492 730 823 878 1110
0 0 0 0 0 0 0 0 0 0 0 13 6 1 0 0 0 0 0 0 0 0 0 0 0 515 444 567 700 822 1045 1671 1749 1611 1188 654 550 506 613 346 529 923 872 1080
0 0 0 0 0 0 0 0 0 0 0 0 0 0 0 0 0 0 0 0 0 0 0 0 5 583 562 597 686 804 1161 1175 914 1429 1248 1488 688 371 279 570 356 734 755 660
0 0 0 0 0 0 0 0 0 0 0 0 0 0 0 0 0 0 0 0 0 0 0 0 249 563 579 563 680 904 997 835 1035 878 1301 603 563 224 333 222 610 1024 875 798
0 0 0 0 0 0 0 0 0 2 0 0 0 0 0 0 0 0 0 0 0 0 0 61 536 565 517 501 675 797 829 806 782 556 591 753 613 483 400 623 801 1010 1283 1001
0 0 0 0 0 0 0 0 0 2 0 0 0 0 0 0 0 0 0 0 0 24 139 393 528 429 450 564 644 710 722 804 618 539 508 554 712 827 869 740 1024 860 789 1140
0 0 0 0 0 0 0 0 0 0 0 0 0 0 0 0 0 0 0 0 32 216 356 459 430 466 487 517 570 516 627 560 447 409 389 594 837 819 945 919 647 1327 680 1029
134 1 0 0 0 0 0 0 0 0 1 0 3 4 0 0 0 0 0 0 91 371 493 489 479 485 484 512 510 594 538 428 369 249 552 634 852 620 885 697 517 876 749 521
47 84 0 3 0 0 1 0 1 0 0 5 11 32 60 0 0 0 11 0 137 554 534 512 506 506 488 482 547 551 428 362 183 409 504 599 758 739 650 503 411 940 395 233
20 112 61 4 28 0 0 1 0 0 0 10 20 36 13 11 0 1 46 113 468 604 505 524 459 456 482 482 500 536 338 153 218 393 392 1111 818 722 568 454 224 577 414 216
152 118 140 69 22 1 0 3 0 0 0 0 49 49 0 0 9 6 90 401 622 549 422 425 413 445 472 519 530 427 156 60 205 272 373 465 740 728 659 821 671 317 395 119
136 136 120 132 96 12 15 6 3 0 12 15 38 53 0 2 76 98 234 418 508 413 366 388 406 430 475 545 459 146 47 22 106 238 298 965 712 805 664 851 838 230 98 83
37 97 74 76 141 24 24 19 13 4 21 29 9 17 0 12 45 115 332 477 386 366 360 395 384 406 485 436 210 32 8 18 94 176 215 614 793 752 585 836 729 149 110 146
36 76 7 5 3 48 54 32 24 12 17 44 10 3 1 82 34 151 333 326 391 390 334 382 356 401 440 289 102 6 8 6 47 79 382 1042 719 771 475 754 687 690 277 588
50 138 27 0 2 31 67 11 29 40 26 7 23 0 2 35 0 0 11 210 403 399 343 386 350 399 381 187 32 0 15 22 33 122 552 699 448 311 628 557 674 770 744 698
25 162 94 29 18 22 75 52 25 12 35 7 2 0 0 3 0 10 16 41 283 426 400 422 407 449 391 136 13 0 5 14 43 188 497 394 343 220 301 304 314 489 927 977
17 42 38 27 5 87 46 36 17 23 21 13 2 0 2 6 0 0 0 43 46 396 461 492 466 542 429 93 4 0 6 0 41 254 417 386 345 370 314 298 357 609 1189 687
18 15 52 19 63 204 55 87 36 55 44 43 9 9 20 0 0 0 24 49 263 472 583 625 576 627 461 46 1 0 8 0 31 225 448 390 420 538 795 710 788 1221 1117 1243
14 20 17 43 177 102 37 37 7 78 129 1 0 0 0 0 0 117 16 13 126 640 656 726 657 663 476 55 0 0 8 0 20 131 419 419 431 516 796 977 951 1030 1143 1012
49 63 61 90 214 172 4 7 13 23 21 4 0 0 0 0 4 0 0 3 29 299 675 800 760 757 556 65 0 0 5 0 1 52 392 498 631 642 933 801 1130 1212 965 1175
31 55 145 146 189 109 1 14 87 12 11 5 5 1 0 0 0 0 4 6 56 160 624 813 846 851 619 75 4 0 0 0 0 14 284 573 670 648 830 838 783 994 1301 1119
128 26 23 33 11 6 3 9 4 1 13 4 3 0 0 0 0 7 71 117 202 173 485 713 899 932 690 119 13 0 0 0 0 1 222 542 638 573 894 735 683 749 972 768
31 11 16 41 7 2 5 6 4 4 7 9 1 0 0 0 0 59 185 280 324 441 320 647 857 959 793 209 19 0 0 0 0 0 150 486 634 610 688 534 251 352 376 379
36 26 29 17 7 13 3 12 12 6 9 8 3 0 0 0 1 5 161 529 613 559 464 562 783 990 883 341 52 0 0 0 4 35 55 214 578 589 599 462 79 30 360 91
27 37 61 55 31 22 22 14 10 4 5 4 2 1 1 0 0 0 17 284 754 810 679 440 756 989 939 480 121 0 0 0 18 225 69 67 184 551 490 368 330 0 0 0

GFSCGP_con_sbcape_024.txt.gz
CAPE
0 0 0 0 0 0 0 0 0 0 0 0 35 11 0 0 4 4 21 0 0 0 101 132 37 292 737 937 1274 2945 3288 4004 2863 2694 2352 2107 1469 1215 1069 1283 1465 1446 1509 1366
0 0 0 0 0 0 0 0 0 0 0 1 28 15 0 0 3 18 15 2 2 4 2 42 203 369 1394 1440 1628 2603 2798 2893 2862 2646 2240 1788 1290 839 849 1102 1487 1513 1321 1526
0 0 0 0 0 0 0 0 0 0 0 0 17 3 0 0 0 1 0 0 0 0 0 0 55 1006 1259 1471 1783 1866 2101 2843 2701 2659 2133 2483 1293 1824 1315 1665 1335 1418 1280 1118
0 0 0 0 0 0 0 0 0 0 0 0 1 0 0 0 0 0 0 0 0 0 0 0 125 1241 1247 1148 1283 1607 2172 2451 2448 2156 1688 1503 990 1093 1301 1099 1275 1315 1449 1018
0 0 0 0 0 0 0 0 0 0 0 9 0 0 0 0 0 0 0 0 0 0 0 19 132 1247 1038 1121 1278 1607 2046 1995 1990 1728 1494 1617 1620 1514 1697 1294 1804 1554 1542 1078
0 0 0 0 0 0 0 0 0 0 0 21 0 0 0 0 0 0 0 0 3 0 1 6 914 1012 1015 1031 1240 1645 1593 1702 1383 1755 2061 1640 1573 1675 1672 1252 1587 1418 1534 1393
0 0 0 0 0 0 0 7 0 0 0 0 0 0 0 0 0 0 0 0 0 4 20 971 986 932 925 1033 1286 1370 1343 1299 1322 1530 1413 1783 1725 1241 1325 1332 1344 1102 1227 1186
24 36 0 0 0 0 0 0 0 0 0 0 0 0 0 0 0 0 0 0 0 163 785 935 919 855 866 1085 1141 1072 1288 1215 1123 1131 1180 1702 1856 1282 1521 1392 1282 1021 959 1144
42 29 2 0 0 0 0 0 0 0 0 0 0 0 0 0 0 0 0 0 270 560 927 900 882 837 969 993 1100 1129 1108 1013 930 1008 1480 1633 1606 1412 1258 1446 1189 1088 1118 794
1 6 0 4 0 0 1 0 0 3 1 6 0 2 9 18 19 1 0 26 649 927 829 791 772 968 908 1008 1173 1139 1011 857 898 808 1290 1221 629 1228 1174 657 965 848 747 402
5 59 0 0 37 0 0 0 0 1 0 0 0 0 469 184 11 12 29 2 800 832 755 749 793 903 937 893 893 1000 871 726 627 997 1202 1281 1201 1117 545 699 503 841 598 193
130 57 25 2 40 0 0 0 3 17 0 0 1 1 176 178 14 82 90 288 816 779 701 712 762 746 778 854 840 878 672 348 649 676 1031 1224 1267 1137 855 717 526 758 692 632
62 144 52 38 48 68 19 9 10 40 97 13 0 2 62 1 91 21 421 788 789 705 665 640 669 752 754 829 790 583 380 304 376 426 939 843 1174 1062 918 729 527 572 924 521
16 34 26 109 60 73 82 26 0 54 6 5 12 85 49 26 65 277 789 918 707 611 691 612 682 743 738 810 608 223 145 255 292 452 788 1207 1410 778 853 612 848 689 403 198
27 54 60 3 1 34 25 69 1 16 1 2 7 31 61 181 195 635 846 692 598 549 573 718 697 730 830 756 369 90 103 169 342 552 1146 1078 1238 850 631 549 615 568 691 388
56 40 51 24 7 2 23 16 38 8 13 11 8 125 376 208 198 400 630 509 504 530 572 581 671 765 791 552 133 63 158 151 300 860 929 941 676 613 638 668 655 705 691 755
43 54 47 10 9 16 1 4 20 20 44 39 29 322 382 56 65 371 475 587 615 574 544 637 686 800 753 407 177 132 175 134 238 744 705 742 639 679 665 656 629 898 820 529
19 23 58 66 10 7 35 33 22 42 63 61 56 236 269 76 40 15 5 184 684 614 718 680 774 1004 829 322 93 148 116 83 165 732 503 478 377 323 367 481 420 757 781 712
9 6 31 84 53 5 76 164 83 70 107 39 95 40 11 5 128 144 37 25 240 860 979 849 959 1117 815 323 109 66 65 42 176 467 479 369 534 502 567 860 776 684 588 457
21 17 74 49 16 259 113 32 1 17 101 0 105 80 59 9 37 25 18 21 182 502 1261 957 1012 1166 828 433 131 127 71 28 199 364 518 489 564 776 969 1190 1223 988 912 1108
38 69 39 25 45 29 8 0 1 52 51 34 31 21 0 0 12 0 7 45 168 400 835 1207 1186 1163 928 478 174 119 84 31 162 340 532 723 923 838 1217 1504 1204 1362 1068 1012
44 120 51 69 36 38 0 0 4 4 86 9 2 0 0 0 0 11 24 45 121 262 608 1167 1241 1376 879 432 162 122 218 47 93 352 577 871 1211 813 1121 1491 1521 1317 1185 844
17 32 29 47 10 11 23 8 0 0 7 2 0 0 0 0 0 31 100 143 195 297 457 976 1261 1444 899 422 145 203 336 62 69 313 964 972 954 1033 1212 1277 1411 1057 1095 901
15 15 17 13 6 18 21 13 1 0 0 5 1 0 0 0 0 21 171 398 349 480 377 870 1337 1415 1029 513 240 295 171 20 42 465 1111 971 878 1187 1044 788 1100 897 894 824
22 15 19 15 8 6 12 0 0 0 0 0 4 7 0 0 0 0 56 355 700 569 585 791 1318 1449 1203 614 318 218 60 12 176 507 887 1079 880 1052 1075 696 218 592 452 281
35 28 44 50 23 23 12 3 0 4 2 1 2 4 6 0 0 0 1 69 365 733 831 694 1225 1622 1282 679 387 132 56 15 377 414 638 774 777 977 688 459 41 0 0 0

GFSCGP_con_sbcape_027.txt.gz
CAPE
0 0 0 0 0 0 0 0 0 0 0 0 0 0 0 0 0 0 0 0 0 0 0 0 0 0 0 298 921 937 1310 1763 1968 1816 1744 1432 921 486 377 221 265 542 558 706
0 0 0 0 0 0 0 0 0 0 0 0 0 0 0 0 0 0 0 0 0 0 0 0 0 0 137 178 953 1310 2201 1903 1852 1759 1471 1176 528 356 254 232 293 449 604 499
0 0 0 0 0 0 0 0 0 0 0 0 0 0 0 0 0 0 0 0 0 0 0 0 0 30 320 699 1077 1485 1881 1796 1706 1568 1274 725 225 153 239 224 335 416 353 475
0 0 0 0 0 0 0 0 0 0 0 0 0 0 0 0 0 0 0 0 0 0 0 0 0 290 503 783 866 1007 1660 1733 1564 1204 844 514 285 343 213 204 212 350 375 563
0 0 0 0 0 0 0 0 0 0 0 0 0 0 0 0 0 0 0 0 0 0 0 0 0 434 537 628 824 1377 1542 1351 977 673 538 241 93 178 186 277 236 294 218 289
0 0 0 0 0 0 0 0 0 0 0 0 0 0 0 0 0 0 0 0 0 0 0 15 466 557 565 793 1143 1250 1257 1016 789 525 443 294 256 368 74 272 279 129 263 377
10 5 0 0 0 0 0 0 0 0 0 0 0 0 0 0 0 0 0 0 0 0 37 405 484 484 617 904 1023 991 908 621 601 794 258 597 110 219 321 197 132 344 366 349
9 0 0 0 0 0 0 0 0 0 0 0 0 0 0 0 0 0 0 0 8 354 332 389 382 458 754 906 838 748 595 541 603 234 432 346 242 142 311 117 46 43 22 125
27 1 0 0 0 0 0 0 0 0 0 0 0 0 0 0 0 0 0 0 265 336 350 360 290 540 714 695 533 624 550 487 386 163 417 402 305 223 268 110 49 23 20 0
7 0 0 0 0 0 0 0 0 0 0 0 0 0 0 0 0 0 0 38 291 279 325 267 382 518 561 535 530 560 432 372 276 320 356 291 354 170 165 7 25 66 25 84
0 0 0 0 0 0 0 0 0 0 0 0 0 0 0 0 0 0 0 297 248 186 247 319 426 435 468 519 503 417 323 295 166 320 261 261 82 174 2 23 51 11 0 146
52 32 4 1 0 0 0 0 0 0 0 0 0 0 0 4 0 0 182 354 204 253 227 400 370 401 422 392 390 294 207 133 111 320 388 454 249 12 17 1 40 0 0 1
72 16 7 9 1 0 5 0 0 0 0 0 0 0 0 0 1 0 306 374 273 233 293 320 334 347 338 309 272 263 66 28 225 334 301 505 276 177 63 0 24 5 4 39
41 1 7 4 21 1 5 0 0 0 0 0 0 0 0 0 1 282 379 270 276 226 323 285 288 286 290 277 231 59 9 60 76 401 380 364 316 182 13 2 13 115 53 13
7 136 3 11 28 6 0 0 0 0 0 0 0 0 0 3 537 494 340 274 227 281 280 252 243 227 255 170 11 0 2 29 10 388 572 443 178 110 7 32 36 203 21 79
49 185 40 59 7 0 0 0 0 0 0 0 0 0 0 18 591 539 413 305 272 271 282 274 264 247 261 87 0 0 0 4 309 587 637 446 261 68 1 1 11 47 37 141
39 7 28 2 34 0 0 0 0 0 0 0 0 0 9 444 420 280 272 241 223 258 283 315 327 297 161 0 0 0 0 28 319 472 776 528 400 265 20 36 8 61 24 120
0 0 41 99 31 0 0 35 10 0 1 134 0 0 266 91 18 0 0 40 142 336 268 275 260 185 21 0 0 0 0 10 255 375 515 521 325 196 235 232 39 30 10 48
0 1 7 81 22 0 0 1 3 2 296 233 131 68 0 17 0 0 0 0 6 89 192 193 284 121 0 0 0 0 0 0 161 246 293 165 250 286 232 256 22 26 38 38
0 0 16 57 7 25 5 0 0 0 155 57 13 10 0 12 4 0 0 0 0 10 366 368 311 59 0 0 0 0 0 0 0 238 187 126 86 194 172 12 5 19 43 24
12 15 8 12 39 8 11 3 0 45 9 0 0 0 0 0 0 0 0 0 4 19 449 484 260 33 0 0 0 0 0 0 0 153 219 156 191 594 221 295 283 136 86 25
8 13 6 19 0 3 14 11 11 22 0 0 0 0 0 12 32 70 23 4 20 49 215 522 297 92 0 0 0 0 0 0 0 132 338 290 468 775 593 398 489 255 43 0
16 12 5 17 8 9 13 38 25 7 15 0 0 0 0 15 12 36 140 170 93 79 155 564 406 107 0 0 0 0 0 0 0 204 490 333 424 607 458 570 397 406 48 0
13 13 8 15 8 16 36 12 2 2 0 0 0 0 0 0 0 0 1 1 171 186 225 261 438 138 5 0 0 0 0 0 0 382 358 327 444 444 473 554 293 218 161 51
16 10 5 2 7 6 15 3 0 0 0 0 0 0 0 0 0 0 0 0 0 0 102 293 597 261 71 1 0 13 0 0 35 375 287 362 447 402 273 125 191 204 176 227
27 18 23 9 10 6 0 0 0 0 0 0 0 0 0 0 0 0 0 0 0 6 153 322 660 462 163 20 1 1 0 0 53 389 331 323 471 376 145 0 0 0 0 0

GFSCGP_con_sbcape_030.txt.gz
CAPE
0 0 0 0 0 0 0 0 0 0 0 0 0 0 0 0 0 0 0 0 0 0 0 0 0 0 0 0 0 1 591 834 1205 997 1128 878 512 185 80 146 366 345 305 288
0 0 0 0 0 0 0 0 0 0 0 0 0 0 0 0 0 0 0 0 0 0 0 0 0 0 0 12 183 101 687 1162 1396 1451 1127 757 313 121 89 64 225 305 247 321
0 0 0 0 0 0 0 0 0 0 0 0 0 0 0 0 0 0 0 0 0 0 0 0 0 0 0 45 466 745 1183 1261 1322 1065 638 218 93 65 28 18 21 171 247 271
0 0 0 0 0 0 0 0 0 0 0 0 0 0 0 0 0 0 0 0 0 0 0 0 0 0 8 227 708 1292 1193 1266 1172 1043 661 485 177 192 63 88 29 111 152 210
0 0 0 0 0 0 0 0 0 0 0 0 0 0 0 0 0 0 0 0 0 0 0 0 0 0 90 472 760 1159 1164 1293 886 680 437 219 128 24 0 24 56 130 61 134
0 0 0 0 0 0 0 0 0 0 0 0 0 0 0 0 0 0 0 0 0 0 0 0 0 160 311 491 867 943 930 633 489 340 138 13 38 2 24 44 51 6 10 56
32 16 0 0 0 0 0 0 0 0 0 0 0 0 0 0 0 0 0 0 0 0 0 159 220 340 550 841 901 645 538 437 257 26 0 1 9 0 31 24 0 34 41 12
1 0 1 11 0 0 0 0 0 0 0 0 0 0 0 0 0 0 0 0 0 0 16 142 207 433 743 826 735 478 294 359 61 71 2 0 0 0 8 1 0 1 0 0
28 2 2 0 0 0 0 0 0 0 0 0 0 0 0 0 0 0 0 0 29 103 122 100 303 619 652 480 425 209 175 80 4 66 0 3 10 15 2 0 0 0 0 0
0 0 0 0 0 0 0 0 0 0 0 0 0 0 0 0 0 0 0 1 155 127 112 214 405 472 370 253 222 99 87 0 9 33 16 7 3 12 0 0 0 0 0 1
0 0 0 0 0 0 0 0 0 0 0 0 0 0 0 0 0 0 0 29 117 134 103 275 350 295 232 265 173 71 48 1 39 44 21 45 30 16 0 0 0 0 0 0
8 0 0 0 0 0 0 0 0 0 0 0 0 0 0 0 0 0 0 134 105 78 143 262 267 246 308 284 160 74 13 6 31 40 7 2 7 0 0 0 0 0 0 0
9 0 0 0 1 3 7 6 0 0 0 0 0 0 0 0 0 10 149 71 60 98 211 219 254 335 300 252 147 23 9 0 5 83 143 15 0 0 0 0 0 0 0 0
63 0 0 0 0 0 23 19 0 0 0 0 0 0 0 0 0 65 81 93 68 223 248 219 289 262 281 203 135 10 0 0 38 85 138 35 2 0 0 0 0 3 5 16
4 12 3 0 0 3 1 0 0 0 0 0 0 0 0 0 0 0 121 103 174 223 214 253 237 205 193 109 75 0 0 0 33 189 212 87 15 0 0 0 5 23 27 19
0 0 84 12 6 11 3 2 0 0 0 0 0 0 0 0 7 149 125 151 265 248 249 245 200 235 143 100 4 0 0 0 140 332 328 172 24 0 0 0 18 16 20 29
17 7 23 1 17 53 0 5 6 17 0 0 0 0 0 78 304 131 144 236 288 287 296 263 243 261 145 42 0 0 0 32 212 392 378 192 80 0 0 0 0 10 35 17
0 0 12 15 17 18 160 20 108 164 0 63 58 12 24 18 0 0 0 189 251 278 324 295 263 199 53 0 0 0 5 101 172 428 391 158 183 1 0 0 0 0 1 17
0 0 1 13 13 52 174 0 16 48 55 102 1 3 10 0 0 0 0 0 60 233 274 271 198 73 0 0 0 0 20 83 124 448 248 139 41 1 3 0 0 0 0 0
0 0 4 18 16 44 4 0 2 9 90 0 1 0 2 0 2 0 0 0 0 25 214 163 66 3 0 0 0 0 1 46 110 170 192 100 7 13 5 0 0 0 5 0
14 7 6 3 18 1 7 8 1 163 75 3 1 0 23 4 1 0 0 0 0 24 99 136 14 0 0 0 0 0 0 2 37 131 36 6 10 0 0 0 0 0 2 0
8 5 22 44 2 0 5 1 14 16 4 10 0 0 36 0 0 0 0 0 35 153 256 91 3 0 0 0 0 0 0 0 0 3 26 7 61 38 1 1 3 0 0 0
11 8 4 8 6 12 9 27 24 11 11 6 1 0 0 0 0 0 0 0 50 143 196 35 0 0 0 0 0 0 0 0 0 3 36 125 253 212 14 63 5 0 0 0
0 9 12 12 12 7 16 1 2 3 4 0 0 0 0 0 0 0 0 0 0 13 265 140 0 0 0 0 0 0 0 0 58 17 29 190 257 198 193 63 0 0 0 0
16 1 7 1 8 14 12 3 9 0 0 0 0 0 0 0 0 0 0 0 0 3 48 332 25 0 0 0 0 0 0 0 88 32 62 167 150 194 129 30 0 5 0 0
0 2 0 18 15 7 2 2 3 0 0 0 0 0 0 0 0 0 0 0 0 0 0 54 84 0 0 0 0 0 0 2 54 29 134 209 145 95 0 0 0 0 0 0

GFSCGP_con_sbcape_033.txt.gz
CAPE
0 0 0 0 0 0 0 0 0 0 0 0 0 0 0 0 0 0 0 0 0 0 0 0 0 0 0 0 0 0 0 29 285 430 479 438 656 258 231 403 492 439 426 400
0 0 0 0 0 0 0 0 0 0 0 0 0 0 0 0 0 0 0 0 0 0 0 0 0 0 0 0 0 0 0 145 423 603 710 432 220 68 196 300 482 464 418 363
0 0 0 0 0 0 0 0 0 0 0 0 0 0 0 0 0 0 0 0 0 0 0 0 0 0 0 0 0 0 3 366 607 351 60 17 8 1 32 121 306 271 300 273
0 0 0 0 0 0 0 0 0 0 0 0 0 0 0 0 0 0 0 0 0 0 0 0 0 0 0 0 4 192 487 631 526 469 244 258 240 206 3 9 8 45 115 135
0 0 0 0 0 0 0 0 0 0 0 0 0 0 0 0 0 0 0 0 0 0 0 0 0 0 0 4 394 629 699 761 548 371 226 53 32 0 0 0 0 0 0 50
0 0 0 0 0 0 0 0 0 0 0 0 0 0 0 0 0 0 0 0 0 0 0 0 0 0 0 190 672 731 733 473 322 162 39 70 10 0 0 0 0 0 0 0
11 0 0 0 0 0 0 0 0 0 0 0 0 0 0 0 0 0 0 0 0 0 0 0 0 9 197 616 561 547 507 278 134 17 1 3 0 0 2 0 0 0 0 0
0 1 0 24 0 0 0 0 0 0 0 0 0 0 0 0 0 0 0 0 0 0 0 0 1 148 434 497 404 348 248 1 0 0 0 0 0 0 0 0 0 0 0 0
12 1 4 0 0 0 0 0 0 0 0 0 0 0 0 0 0 0 0 0 0 0 0 27 191 362 385 225 40 130 18 0 0 0 0 0 0 0 0 0 0 0 0 0
0 0 1 5 0 0 0 0 0 0 0 0 0 0 0 0 0 0 0 0 0 1 73 211 350 270 156 40 0 3 0 0 0 0 0 0 0 0 0 0 0 0 0 0
0 0 0 0 0 0 0 0 0 0 0 0 0 0 0 0 0 0 0 0 0 25 133 235 236 108 62 0 0 0 0 0 0 0 0 0 0 0 0 0 0 0 0 0
0 0 0 0 0 0 0 0 0 0 0 0 0 0 0 0 0 0 0 0 0 7 139 170 119 108 109 2 0 0 0 0 0 0 0 0 0 0 0 0 0 0 0 0
5 0 0 0 0 0 1 1 0 0 0 0 0 0 0 0 0 0 77 49 13 128 164 133 131 223 146 9 1 0 0 0 0 0 0 0 0 0 0 0 0 0 0 0
40 0 0 0 0 0 0 1 1 0 0 0 0 0 0 0 0 0 2 37 24 189 213 178 164 204 157 33 0 0 0 0 0 3 0 0 0 0 0 0 0 0 0 0
6 0 0 0 0 3 9 0 0 1 0 0 0 0 0 0 0 0 0 8 123 161 196 239 169 170 123 20 0 0 0 0 0 27 2 0 0 0 0 0 0 3 9 12
0 8 12 10 17 7 7 0 0 0 0 0 0 0 0 0 0 3 0 18 147 200 243 246 186 189 128 58 0 0 0 0 14 87 92 93 33 0 0 0 10 15 15 26
2 4 22 0 0 28 1 5 0 0 0 0 0 0 0 0 2 46 4 110 239 250 269 248 222 196 134 29 0 0 0 0 38 218 237 165 20 0 0 0 3 17 16 16
0 1 10 9 14 1 22 142 22 0 0 1 0 0 0 0 4 0 2 71 240 267 274 214 207 142 50 0 0 0 0 0 91 327 241 59 7 0 0 0 0 0 2 4
0 0 11 15 16 5 83 10 7 4 30 46 28 0 0 1 0 0 1 0 0 110 180 122 184 89 2 0 0 0 0 20 156 224 112 49 1 0 0 0 0 0 0 0
0 0 0 16 1 6 111 3 3 4 1 2 0 0 0 0 0 0 0 0 0 0 88 60 120 48 0 0 0 0 0 11 155 241 55 18 0 0 0 0 0 0 0 0
10 12 1 2 8 27 4 3 1 14 15 3 4 0 0 0 0 0 0 1 0 0 12 38 49 1 0 0 0 0 0 3 31 109 41 0 0 0 0 0 0 0 0 0
6 5 19 12 16 1 3 0 25 9 3 14 5 1 0 0 0 19 9 19 18 19 28 66 31 0 0 0 0 0 0 0 0 9 14 0 0 0 0 0 0 0 0 0
6 6 1 4 1 4 3 3 20 26 12 20 11 0 0 0 0 0 0 0 0 61 97 63 23 0 0 0 0 0 0 0 0 0 0 0 0 0 0 0 0 0 0 0
2 21 14 8 10 7 28 18 9 8 9 14 10 0 0 0 0 0 0 0 6 115 41 6 0 0 0 0 0 0 0 0 0 0 0 2 0 0 0 0 0 0 0 1
7 0 2 3 10 15 19 31 39 3 11 0 0 0 0 0 0 0 0 0 0 0 19 0 0 0 0 0 0 0 0 0 0 0 10 58 0 1 0 0 0 0 0 0
0 7 28 22 4 10 21 28 38 59 6 7 0 0 0 0 0 0 0 0 0 0 0 29 0 0 0 0 0 0 0 0 0 0 48 73 1 0 0 0 0 0 0 0

GFSCGP_con_sbcape_036.txt.gz
CAPE
0 0 0 0 0 0 0 0 0 0 0 0 0 0 0 0 0 0 0 0 0 0 0 0 0 0 0 0 0 0 0 0 63 129 135 152 384 248 238 261 305 320 323 245
0 0 0 0 0 0 0 0 0 0 0 0 0 0 0 0 0 0 0 0 0 0 0 0 0 0 0 0 0 0 0 0 94 238 148 197 207 101 200 281 404 462 368 277
0 0 0 0 0 0 0 0 0 0 0 0 0 0 0 0 0 0 0 0 0 0 0 0 0 0 0 0 0 0 0 0 4 72 0 0 0 5 50 180 266 310 364 302
0 0 0 0 0 0 0 0 0 0 0 0 0 0 0 0 0 0 0 0 0 0 0 0 0 0 0 0 0 0 0 0 19 11 2 104 110 231 47 202 140 204 222 167
0 0 0 0 0 0 0 0 0 0 0 0 0 0 0 0 0 0 0 0 0 0 0 0 0 0 0 0 0 0 31 138 80 41 9 2 16 0 0 0 33 45 23 64
0 4 0 0 0 0 0 0 0 0 0 0 0 0 0 0 0 0 0 0 0 0 0 0 0 0 0 0 44 170 224 120 50 13 0 0 0 0 0 0 0 0 0 0
4 0 0 0 0 0 0 0 0 0 0 0 0 0 0 0 0 0 0 0 0 0 0 0 0 0 0 21 105 206 179 76 0 0 0 0 0 0 0 0 0 0 0 0
47 1 0 0 0 0 0 0 0 0 0 0 0 0 0 0 0 0 0 0 0 0 0 0 0 0 29 118 228 172 88 0 0 0 0 0 0 0 0 0 0 0 0 0
30 0 0 6 3 0 0 0 0 0 0 0 0 0 0 0 0 0 0 0 0 0 0 0 1 52 110 189 160 28 0 0 0 0 0 0 0 0 0 0 0 0 0 0
0 0 0 2 3 0 0 0 0 0 0 0 0 0 0 0 0 0 0 0 0 0 0 2 54 54 53 13 0 0 0 0 0 0 0 0 0 0 0 0 0 0 0 0
0 0 1 0 0 0 0 0 0 0 0 0 0 0 0 0 0 0 0 0 0 0 0 48 75 104 0 0 0 0 0 0 0 0 0 0 0 0 0 0 0 0 0 0
0 0 0 0 0 0 0 0 0 0 0 0 0 0 0 0 0 0 0 0 0 0 8 54 38 92 0 0 0 0 0 0 0 0 0 0 0 0 0 0 0 0 0 0
7 0 0 0 0 0 0 0 0 0 0 0 0 0 0 0 0 0 0 0 26 0 35 8 155 139 0 0 0 0 0 0 0 0 0 0 0 0 0 0 0 0 0 0
59 0 0 0 0 0 0 0 0 0 0 0 0 0 0 0 0 0 0 0 86 134 96 70 172 69 3 0 0 0 0 0 0 0 0 0 0 0 0 0 0 0 0 0
10 21 1 0 0 0 0 0 0 1 0 0 0 0 0 0 0 0 0 0 78 212 227 147 113 48 0 0 0 0 0 0 0 0 0 0 0 0 0 0 0 0 0 1
16 18 10 1 0 0 2 0 0 0 0 0 0 0 0 0 0 0 0 0 79 204 242 201 116 63 2 0 0 0 0 0 0 0 0 0 0 0 0 0 0 0 13 19
36 44 0 0 0 0 0 0 0 0 0 0 0 0 0 0 0 0 0 2 62 222 259 196 148 124 24 0 0 0 0 0 0 6 15 37 1 0 0 0 0 18 21 22
14 12 2 1 0 0 0 46 34 0 0 0 0 0 0 0 0 0 1 0 71 229 257 194 112 64 4 0 0 0 0 0 1 59 124 13 0 0 0 0 0 5 6 4
1 2 3 1 0 0 0 4 10 5 0 0 74 20 8 0 0 0 25 5 18 137 108 69 47 2 0 0 0 0 0 0 25 177 49 3 0 0 0 0 0 0 0 0
2 1 0 7 3 0 25 1 5 3 1 69 53 4 4 1 0 0 1 1 6 3 20 22 1 0 0 0 0 0 0 0 46 50 17 7 0 0 0 0 0 0 0 0
9 11 1 3 1 1 7 3 1 123 1 7 13 4 5 2 0 0 0 3 10 0 3 1 0 0 0 0 0 0 0 0 22 26 6 3 0 0 0 0 0 0 0 0
5 3 6 10 6 2 5 1 42 21 1 14 9 2 5 0 0 0 8 21 0 6 0 4 0 0 0 0 0 0 0 0 1 5 0 0 0 0 0 0 0 0 0 0
4 3 1 2 0 4 4 9 0 0 6 16 6 2 0 0 0 0 0 0 0 19 1 26 9 0 0 0 0 0 0 0 0 0 0 0 0 0 0 0 0 0 0 0
0 15 11 14 8 20 19 40 21 35 8 9 1 0 0 0 0 0 0 0 0 13 18 1 0 0 0 0 0 0 0 0 0 0 0 0 0 0 0 0 0 0 1 0
0 0 6 6 8 8 10 24 49 10 5 2 0 0 0 0 0 0 0 0 0 0 0 0 0 0 0 0 0 0 0 0 0 0 0 0 0 0 0 1 0 0 0 1
0 7 15 26 2 17 7 26 22 15 19 12 3 0 0 0 0 0 0 0 0 0 1 0 0 0 0 0 0 0 0 0 0 0 0 0 0 0 0 0 0 0 1 0

GFSCGP_con_sbcape_042.txt.gz
CAPE
0 0 0 0 0 0 0 0 0 0 0 0 0 0 0 0 0 0 0 0 0 0 0 0 0 0 0 0 80 465 430 1176 379 21 375 855 1045 1398 1407 1450 1523 1536 1453 1479
0 0 0 0 0 0 0 0 0 0 0 0 0 0 0 0 0 0 0 0 0 0 0 0 0 0 0 2 50 601 757 871 445 59 740 727 1220 1323 1579 1464 1561 1516 1562 1567
1 0 0 0 0 0 0 0 0 0 0 1 0 0 0 0 0 0 0 0 0 0 0 0 0 0 0 0 44 182 290 550 573 548 912 1576 1718 1500 1078 1296 1616 1517 1564 1325
2 0 0 1 11 8 1 0 0 4 18 0 2 0 0 0 0 0 0 0 0 0 0 0 0 0 0 0 0 0 235 69 185 791 1729 2185 1650 1340 1280 1680 1498 1232 1244 1354
2 34 65 74 19 28 23 7 5 16 25 28 4 4 0 0 0 0 0 0 0 0 0 0 0 0 0 0 0 0 0 0 390 1018 1590 1802 1862 1750 1920 1879 1400 1494 1735 1662
42 100 101 83 62 62 32 34 38 22 43 39 5 26 0 0 0 0 0 0 0 0 0 0 0 0 0 0 0 0 0 443 1008 1557 1743 2120 2061 2030 2119 2296 1779 1879 1946 2005
110 155 136 82 84 79 39 55 96 71 70 21 1 24 0 0 0 0 0 0 0 0 0 0 0 0 0 0 0 108 669 1447 1555 1653 1770 2002 2374 2344 2640 2490 2361 2206 1975 1821
158 116 11 4 111 126 54 67 122 67 80 35 3 10 0 0 0 0 0 0 0 0 0 0 0 0 0 0 61 675 1261 1752 1822 1887 2130 2361 2485 2537 2594 2476 2310 2024 1724 1386
129 108 35 55 119 200 144 111 131 45 12 96 2 13 0 0 0 0 0 0 0 0 0 66 51 12 5 147 807 1281 1783 1988 2028 2133 2255 2457 2481 2480 2261 2179 1848 1211 1364 1490
113 113 108 20 8 111 114 147 166 163 100 95 26 6 0 0 0 0 0 0 0 0 71 272 264 586 584 845 1404 1860 2071 2178 2136 2067 2091 2038 1998 1914 1913 1540 1159 1231 1444 1293
120 121 166 165 106 43 151 153 148 107 193 48 66 2 3 1 0 0 0 0 0 0 540 590 697 619 990 1764 2006 2215 2205 2107 2047 1932 1850 1853 1689 1362 1204 1275 1374 1468 1377 1200
209 206 195 164 104 65 47 30 52 285 138 73 5 14 27 0 0 0 0 0 0 0 605 447 581 1035 1888 2022 2074 2106 2080 1969 1868 1742 1522 1284 1155 1195 1275 1238 1219 1165 814 420
240 237 225 144 235 163 95 15 79 142 253 201 73 25 67 1 0 0 0 0 0 0 248 631 697 1322 1839 2021 2047 1985 1843 1621 1359 1103 1049 1115 1090 1090 1081 980 743 535 374 317
107 254 141 290 132 65 82 76 74 117 190 122 75 32 19 6 0 0 0 0 0 0 29 756 667 1189 1679 1825 1769 1652 1414 1149 951 820 823 881 780 698 724 593 505 370 319 442
55 199 208 168 220 119 45 16 23 84 90 129 90 56 27 11 1 0 0 0 0 0 0 833 660 922 1165 1418 1405 1189 931 750 609 424 353 495 598 621 547 499 491 363 430 462
116 336 174 235 184 178 127 61 24 7 15 81 45 3 0 0 0 0 0 0 0 0 0 785 678 837 1214 1022 1136 947 733 519 176 113 337 475 484 484 491 398 400 512 425 453
91 73 62 81 58 83 55 54 63 25 16 36 41 1 0 0 0 0 0 0 0 0 0 818 787 1232 1213 1085 1041 805 563 105 63 223 441 449 467 379 266 249 296 368 573 746
36 52 75 102 51 34 4 44 121 126 74 93 68 7 0 0 0 0 0 0 0 0 0 943 1188 1401 1205 1049 984 731 166 7 104 281 378 498 401 195 146 163 227 498 806 760
13 32 41 38 33 0 0 2 8 49 16 12 8 24 6 3 0 0 0 0 0 0 129 989 1562 1383 1135 1095 918 527 1 57 172 259 385 432 286 295 104 92 308 541 589 584
9 20 77 30 54 21 44 56 16 7 34 102 75 108 36 1 0 0 0 207 314 548 832 1408 1441 1403 1227 1036 781 97 105 198 291 261 247 287 269 320 209 350 404 470 670 595
78 32 19 18 61 25 22 10 8 56 39 7 16 8 8 42 3 0 0 2 59 623 1026 1452 1446 1314 1158 925 456 33 178 311 293 310 430 240 319 406 380 429 405 436 517 502
92 100 160 173 47 67 10 6 48 26 11 5 10 4 18 65 25 4 0 0 37 574 1197 1448 1425 1250 1003 747 125 2 321 395 342 375 296 315 450 330 440 522 532 456 627 663
149 38 31 17 72 28 26 7 12 11 8 6 13 10 28 33 27 11 1 0 127 880 1223 1297 1304 1103 832 354 22 176 427 500 366 388 447 500 500 514 597 715 701 595 762 577
44 35 12 10 22 34 36 19 19 27 11 7 22 35 21 34 26 13 31 297 687 878 1273 1466 1325 1117 694 88 82 384 518 512 595 519 646 671 663 711 698 648 846 876 870 676
73 42 12 12 8 20 6 19 29 24 11 21 38 51 71 29 54 65 133 554 819 1078 1310 1244 1285 739 361 53 67 401 511 470 643 669 775 795 743 828 837 844 447 701 805 425
54 66 67 61 31 35 20 54 40 25 14 13 12 13 17 10 30 305 540 711 917 1137 1401 1447 990 317 81 2 69 327 328 483 785 952 885 715 665 815 750 775 395 0 0 1

GFSCGP_con_sbcape_045.txt.gz
CAPE
0 0 0 0 0 0 0 0 0 0 0 0 0 0 0 0 0 0 0 0 8 12 1 7 19 0 0 274 620 1020 935 1811 998 141 136 105 379 1002 1452 1643 2184 2103 2061 1961
0 0 0 0 0 0 0 0 0 0 0 0 0 0 0 0 0 0 0 0 0 0 0 0 11 5 69 277 549 904 1299 1637 2082 492 1005 352 981 717 1311 1641 2411 2111 2014 2160
0 0 0 0 0 0 0 0 0 0 0 0 0 0 0 0 0 0 0 0 0 0 0 0 0 32 11 115 432 518 1171 1872 2379 1825 1211 1846 1629 2051 1562 2095 2212 1992 1898 2208
0 0 0 0 0 0 1 0 0 0 0 0 0 0 0 0 0 0 0 0 0 0 0 0 0 2 42 11 12 203 843 1729 2125 2856 980 2368 1669 1576 1930 1906 1843 1979 1992 1783
0 2 7 14 10 22 14 12 10 6 3 2 0 0 0 0 0 0 0 0 0 0 0 0 0 0 0 0 0 72 559 1523 1874 2082 1916 1176 2407 1693 1727 1787 2405 1894 1864 1588
33 36 63 51 49 81 43 50 56 29 19 19 0 7 0 0 0 0 0 0 0 0 0 0 0 0 0 0 0 0 410 1292 1670 1873 2765 3457 3487 3290 2257 2567 1712 1590 1689 1994
54 63 5 80 53 136 78 120 112 66 87 16 7 21 7 0 2 0 0 0 0 0 0 0 0 0 0 0 0 0 12 333 1157 1631 2041 2663 3875 4468 4383 2318 1876 2024 2080 2085
119 89 95 92 94 85 69 173 126 63 64 39 57 79 22 9 12 10 0 0 0 0 0 0 0 0 0 0 0 0 134 848 1490 1748 2152 2990 3543 2566 2955 2757 2668 2283 2327 2349
165 159 101 129 173 143 191 291 188 70 102 37 57 37 35 1 20 2 0 0 0 0 0 0 0 2 13 0 0 70 750 1413 1869 2065 2614 2949 2975 3773 2959 4091 3861 2693 2694 2340
132 137 133 163 213 213 248 230 174 134 119 86 84 128 74 22 0 10 3 0 0 0 0 59 84 90 367 67 474 1132 1729 2067 2247 2585 2758 2835 3438 3551 3194 3016 2856 2766 2675 1621
174 238 176 140 213 297 273 301 169 193 207 129 97 122 45 120 0 2 29 1 0 5 415 776 1001 1328 1184 1013 1140 1766 2072 2321 2444 2609 2939 2932 2598 2715 2391 1981 1526 1560 1613 1238
194 218 241 142 158 222 286 267 124 181 131 193 100 37 36 0 176 7 39 7 0 0 801 928 860 1256 1478 1617 1987 2121 2297 2261 2370 2460 2361 2381 2192 1747 1828 1641 1392 1285 1137 954
234 171 240 151 153 165 198 298 100 225 143 167 68 18 0 2 131 58 35 14 1 0 348 1245 1322 2066 1933 1979 2065 2091 2193 2163 2081 2041 1876 1704 1613 1446 1637 1283 1160 910 733 523
134 202 124 269 134 11 34 195 241 133 174 61 41 16 3 0 0 47 37 19 0 0 85 1453 1288 1855 1806 1754 1817 1835 1887 1699 1676 1442 1343 1350 1307 1182 1078 878 730 599 444 385
47 268 194 191 188 153 171 168 81 110 50 94 61 5 0 0 0 7 9 3 0 0 0 1454 1188 1675 1638 1730 1793 1602 1456 1372 1203 1031 1011 997 860 715 570 610 619 462 414 600
64 101 123 124 123 159 209 207 169 127 49 4 27 29 1 1 8 12 0 1 0 0 0 906 1308 1167 1340 1658 1532 1394 1184 978 831 644 512 437 397 464 649 702 840 454 910 890
28 47 73 55 82 137 111 159 152 125 111 0 3 8 21 39 27 4 0 0 0 0 0 71 1326 1083 1513 1361 1271 1163 880 579 349 255 257 297 416 451 530 561 227 812 1029 1019
10 46 46 35 68 37 51 111 109 147 177 136 66 103 117 105 57 1 0 0 0 0 0 30 1252 1431 1570 1578 1172 936 499 253 213 235 246 334 274 300 397 272 661 1264 874 1044
14 20 69 93 67 10 3 11 46 19 164 152 97 59 23 28 63 31 0 0 0 0 146 274 1357 1634 1664 1288 1020 630 267 163 180 203 311 177 199 188 140 391 975 672 853 1151
58 12 39 35 49 40 21 39 7 42 67 127 34 75 216 233 165 7 0 4 132 163 99 1172 1362 1583 1412 1297 901 416 82 157 147 253 284 187 219 141 176 714 739 631 806 861
92 88 35 30 69 39 50 17 10 99 85 21 16 33 121 192 180 187 72 8 3 88 176 1006 1512 1567 1384 1152 827 175 122 185 395 289 260 344 317 234 329 785 963 906 812 960
255 98 182 69 69 236 57 4 24 31 15 15 16 13 32 46 37 12 17 0 3 196 153 1256 1295 1663 1240 990 479 201 239 596 424 348 406 319 589 262 298 850 685 669 886 816
110 135 17 23 181 100 67 34 39 25 13 11 11 10 20 31 23 0 16 11 36 105 350 1354 1488 1182 1136 806 198 235 534 606 457 521 353 501 603 540 671 605 698 829 881 1318
93 84 69 28 31 56 31 24 13 24 30 23 9 12 26 15 24 25 15 20 169 282 1143 1427 1038 1106 1008 534 7 287 644 465 353 529 665 535 666 593 852 900 1396 1286 1492 1273
120 71 79 43 27 27 13 15 44 34 32 11 20 59 61 2 25 65 82 131 265 784 975 1253 1091 1018 681 53 79 392 648 542 519 703 677 810 662 1019 900 517 520 1110 6 627
90 75 91 43 27 9 39 46 34 22 12 13 8 9 64 41 60 94 371 748 888 721 1203 1407 1093 687 116 55 298 491 460 769 564 640 726 722 612 674 687 582 173 0 0 2

GFSCGP_con_sbcape_048.txt.gz
CAPE
0 0 0 0 0 0 0 0 0 0 0 0 0 0 0 0 0 0 0 0 0 5 10 90 130 251 188 1177 1424 1947 2037 2300 2462 2635 1379 952 969 910 1243 1829 2701 2964 2866 2405
0 0 0 0 0 0 0 0 0 0 0 0 0 0 0 0 0 0 0 0 0 0 40 8 31 635 876 1513 1433 2025 1871 2296 2596 1518 1302 1012 1082 778 956 1994 2792 3022 2869 2558
0 0 0 0 0 0 0 0 0 0 0 0 0 0 0 0 0 0 0 0 0 0 0 21 147 335 662 1080 1062 1694 1725 1379 1583 1181 1458 1929 1644 1967 2237 3028 3287 2995 2706 2540
0 0 0 0 0 0 0 0 0 0 0 0 0 0 0 0 0 0 0 0 0 0 0 0 8 290 442 557 789 1191 1581 1438 1531 2271 1711 1754 1074 1179 1599 2917 2997 2781 2642 2314
0 0 1 1 4 15 0 3 2 2 10 4 0 0 0 0 0 0 0 0 0 0 0 0 0 0 0 0 24 92 706 1642 1499 1525 1685 1330 2042 1994 3582 3267 3080 2785 2417 1791
7 4 12 32 18 11 7 2 3 19 33 30 0 2 0 0 0 0 0 2 1 0 0 0 0 0 0 0 0 36 204 516 1532 1885 2313 2150 2175 1803 2642 2360 2614 1972 1614 1364
7 10 37 56 20 41 32 64 58 42 48 43 0 18 16 0 0 0 0 6 12 27 20 0 0 0 0 0 0 78 1044 1246 1737 1797 2302 1834 1478 2634 3975 2875 2207 1664 1344 1330
34 30 46 73 42 37 88 98 56 66 44 39 6 7 14 1 3 1 0 7 11 14 2 1 0 0 0 0 0 14 479 915 1454 1422 1475 2272 2035 2683 3346 2300 1798 1448 1599 1763
24 21 34 39 35 120 76 139 92 46 5 132 22 0 2 0 0 0 0 0 47 14 20 0 0 254 249 130 762 294 808 775 932 1004 2165 2492 3040 3601 2986 2782 2059 2008 2161 2313
35 62 77 75 86 61 213 255 198 217 1 41 47 28 34 66 88 17 6 44 59 92 12 0 0 136 381 355 791 1111 1661 1806 2455 2440 2796 3016 3477 3659 3221 3120 2585 2652 2717 2402
49 100 91 156 108 70 167 220 173 60 27 48 41 0 137 97 6 0 1 57 146 45 14 334 483 1510 1255 922 716 1958 2016 2501 2471 2713 2858 3067 3164 3479 3228 2809 2175 2412 2343 2025
78 126 81 71 75 140 79 113 70 315 66 109 129 59 81 0 0 0 0 129 128 88 7 1013 1045 1182 1562 1756 1543 1847 2602 2447 2846 2535 2656 2555 2478 2397 2361 2158 1963 1872 1681 1480
47 40 83 9 65 64 27 13 55 184 266 110 120 5 111 0 0 0 0 0 0 0 0 1570 1153 1052 1215 1452 1586 2340 2651 2299 2009 1995 1844 1728 1677 1883 2054 1920 1792 1623 1530 1546
78 41 64 121 69 106 8 92 111 153 286 28 55 3 50 0 4 0 0 0 0 0 2 1708 1479 2002 2245 1907 1931 1797 1942 1872 1782 1682 1653 1881 1957 1906 1803 1589 1625 1249 1114 951
28 90 33 35 62 107 102 104 51 68 106 91 13 40 20 32 6 0 0 0 3 0 1 1642 1386 1965 2016 1705 1781 1664 1729 1833 1668 1447 1494 1804 1711 1567 1313 1184 1107 1075 987 874
64 23 46 55 53 15 61 44 6 1 14 45 24 29 43 15 6 6 0 9 0 0 0 329 1505 1588 1959 1822 1334 1359 1393 1485 1607 1373 1524 1378 1140 945 1024 1200 1199 1330 713 718
18 60 34 10 20 32 75 96 64 108 127 152 133 119 218 250 85 47 30 1 5 0 0 22 998 1290 1458 1181 1304 1259 1535 1380 1301 1113 914 770 707 598 797 741 764 440 707 976
47 27 35 18 26 31 10 20 1 22 31 108 74 6 53 86 36 21 23 55 0 0 1 215 770 1194 1405 1350 952 976 1161 880 725 580 466 498 514 536 462 374 495 696 1065 1292
68 10 54 56 37 6 1 12 9 6 8 60 37 28 30 114 138 0 59 49 0 8 356 701 843 1352 1567 1738 959 818 678 562 430 411 442 532 341 236 343 346 752 1067 851 825
8 10 36 10 22 28 118 10 1 3 1 8 6 10 38 126 105 252 360 251 28 479 448 510 300 1100 1578 1740 784 764 608 510 409 345 304 287 167 387 256 628 849 910 787 853
131 63 23 21 58 43 10 20 6 21 3 2 17 12 12 6 12 0 39 76 140 327 301 416 155 889 1288 1538 697 643 540 468 625 424 321 302 105 220 722 917 970 796 708 812
354 104 61 48 31 43 15 6 16 12 4 12 14 7 3 9 0 0 1 20 28 56 80 128 278 920 1278 1116 814 543 729 720 563 391 467 508 345 177 452 968 813 872 919 703
122 202 14 15 154 65 123 56 29 49 16 16 13 12 12 14 15 1 2 0 0 97 121 151 50 790 946 1009 595 570 791 729 608 706 260 512 354 113 575 496 594 847 756 721
47 143 212 35 20 8 0 8 38 36 41 24 19 11 6 9 7 0 2 0 19 111 214 90 598 1099 948 565 637 1127 875 710 802 386 627 767 509 445 593 720 1000 904 1019 953
96 124 117 115 53 15 7 22 13 11 8 8 3 4 16 53 17 0 0 0 52 74 31 600 933 668 681 398 493 805 816 782 661 476 570 477 480 837 312 5 2 397 2 230
111 37 85 32 9 1 11 30 24 15 10 2 4 10 3 13 37 1 11 222 270 135 161 774 688 587 323 107 480 846 447 932 560 718 511 426 571 978 567 145 0 1 0 2